User: anonymous   Login
Location: Caltech
(34.1382°N, 118.1253°W)
Time: 23:40:52
(UTC-07:00)
Language:

SL-16 R/B - Orbit

View from above orbital plane
View from above orbital plane
View from above satellite
View from above satellite

Ground track
Ground track

The orbit data is extracted from the following two-line orbital elements,

1 31793U 07029B   15089.02511038 -.00000133  00000-0 -44684-4 0  9993
2 31793 070.9753 290.8346 0002957 273.7637 248.0879 14.14323112400167
Epoch (UTC): 30 March 2015 00:36:09
Eccentricity: 0.0002957
inclination: 70.9753°
perigee height: 842 km
apogee height: 847 km
right ascension of ascending node: 290.8346°
argument of perigee: 273.7637°
revolutions per day: 14.14323112
mean anomaly at epoch: 248.0879°
orbit number at epoch: 40016

The dashed part of the orbit path shows where the satellite is in the earth's shadow,  

DLR